{"data":{"norad_id":58562,"epoch":"2026-05-25T03:59:58.943616Z","epoch_age_seconds":57673,"freshness":"FRESH","line1":"1 58562U 23185M   26145.16665444  .00003569  00000+0  18466-3 0  9999","line2":"2 58562  97.5373 218.6458 0007263  47.9186 312.2663 15.16872649135066","mean_motion":15.16872649,"eccentricity":0.0007263,"inclination_deg":97.5373,"raan_deg":218.6458,"arg_perigee_deg":47.9186,"mean_anomaly_deg":312.2663,"bstar":0.00018466,"rev_number":13506,"period_min":94.9321619682,"perigee_km":510.29250485501,"apogee_km":520.30591029013,"semimajor_km":6893.4362075726,"source":"CELESTRAK","updated_at":"2026-05-25T13:38:00.833292Z"}}